IK1WHN-5 Weather Reports


time (UTC)temp
C
wind
direction
speed
KPH
gust
KPH
rain 1hr
cm
rain 24hr
cm
rain mn
cm
humidity
%
barometer
mb
20260506234603 -17 301 3.2 8.0 0.00 0.00 0.00 87 1011.7
20260506234102 -17 353 1.6 6.4 0.00 0.00 0.00 87 1011.6
20260506233602 -17 0 6.4 11.3 0.00 0.00 0.00 87 1011.7
20260506233103 -17 324 1.6 4.8 0.00 0.00 0.00 87 1011.8
20260506232603 -17 261 0.0 1.6 0.00 0.00 0.00 87 1012.0
20260506232102 -17 252 3.2 3.2 0.00 0.00 0.00 87 1011.8
20260506231603 -17 319 0.0 3.2 0.00 0.00 0.00 87 1012.1
20260506231103 -17 333 3.2 9.7 0.00 0.00 0.00 87 1011.8
20260506230603 -17 26 3.2 9.7 0.00 0.00 0.00 87 1011.7
20260506225603 -17 323 4.8 4.8 0.00 0.00 0.00 87 1011.7
20260506225103 -17 355 1.6 6.4 0.00 0.00 0.00 86 1011.7
20260506224602 -17 334 1.6 4.8 0.00 0.00 0.00 86 1011.6
20260506224103 -17 0 4.8 8.0 0.00 0.00 0.00 86 1011.7
20260506223603 -17 350 4.8 4.8 0.00 0.00 0.00 87 1011.7
20260506223103 -17 32 0.0 1.6 0.00 0.00 0.00 87 1011.7
20260506222602 -17 172 0.0 3.2 0.00 0.00 0.00 87 1011.7
20260506222102 -17 187 0.0 1.6 0.00 0.00 0.00 87 1011.7
20260506221603 -17 352 0.0 0.0 0.00 0.00 0.00 86 1011.5
20260506221102 -17 270 0.0 3.2 0.00 0.00 0.00 86 1011.7
20260506220603 -17 257 1.6 1.6 0.00 0.00 0.00 85 1011.8
20260506215603 -17 180 3.2 3.2 0.00 0.00 0.00 85 1011.6
20260506215102 -17 180 1.6 3.2 0.00 0.00 0.00 84 1011.7
20260506214602 -17 23 0.0 1.6 0.00 0.00 0.00 84 1011.7
20260506214102 -17 66 1.6 9.7 0.00 0.00 0.00 84 1011.7
20260506213602 -17 352 3.2 3.2 0.00 0.00 0.00 84 1011.7
20260506213103 -17 246 1.6 3.2 0.00 0.00 0.00 84 1011.6
20260506212602 -17 243 0.0 1.6 0.00 0.00 0.00 84 1011.6
20260506212102 -17 180 1.6 1.6 0.00 0.00 0.00 83 1011.6
20260506211603 -17 281 1.6 3.2 0.00 0.00 0.00 83 1011.7
20260506211102 -17 261 0.0 0.0 0.00 0.00 0.00 83 1011.6
20260506210603 -17 103 1.6 3.2 0.00 0.00 0.00 83 1011.6
20260506205602 -17 283 0.0 1.6 0.00 0.00 0.00 84 1011.3
20260506205102 -17 331 1.6 3.2 0.00 0.00 0.00 84 1011.5
20260506204602 -17 352 0.0 6.4 0.00 0.00 0.00 84 1011.6
20260506204103 -17 19 3.2 6.4 0.00 0.00 0.00 84 1011.6
20260506203602 -17 324 3.2 3.2 0.00 0.00 0.00 84 1011.3
20260506203103 -17 23 0.0 3.2 0.00 0.00 0.00 84 1011.3
20260506202603 -17 0 0.0 0.0 0.00 0.00 0.00 85 1011.5
20260506202103 -17 311 1.6 3.2 0.00 0.00 0.00 85 1011.5
20260506201603 -17 225 1.6 3.2 0.00 0.00 0.00 85 1011.2
20260506201102 -17 188 0.0 0.0 0.00 0.00 0.00 85 1011.2
20260506200602 -17 353 0.0 0.0 0.00 0.00 0.00 84 1011.2
20260506195603 -17 187 0.0 1.6 0.00 0.00 0.00 84 1011.1
20260506195102 -17 348 1.6 3.2 0.00 0.00 0.00 85 1011.0
20260506194602 -17 270 0.0 3.2 0.00 0.00 0.00 85 1011.0
20260506194102 -17 320 0.0 3.2 0.00 0.00 0.00 85 1010.8
20260506193603 -17 311 1.6 3.2 0.00 0.00 0.00 85 1010.7
20260506193103 -17 279 0.0 1.6 0.00 0.00 0.00 85 1010.7
20260506192602 -17 180 0.0 0.0 0.00 0.00 0.00 84 1010.6
20260506192102 -17 261 0.0 0.0 0.00 0.00 0.00 83 1010.3
20260506191602 -17 270 0.0 1.6 0.00 0.00 0.00 83 1010.5
20260506191102 -17 99 0.0 3.2 0.00 0.00 0.00 81 1010.5
20260506190603 -17 120 1.6 3.2 0.00 0.00 0.00 81 1010.2
20260506185602 -17 180 1.6 1.6 0.00 0.00 0.00 81 1010.2
20260506185103 -17 180 3.2 6.4 0.00 0.00 0.00 81 1010.1
20260506184602 -17 102 1.6 3.2 0.00 0.00 0.00 81 1010.1
20260506184103 -17 177 3.2 4.8 0.00 0.00 0.00 81 1009.8
20260506183603 -17 180 1.6 3.2 0.00 0.00 0.00 80 1010.1
20260506183102 -17 180 0.0 1.6 0.00 0.00 0.00 80 1010.0
20260506182602 -17 180 0.0 3.2 0.00 0.00 0.00 79 1010.0
20260506182103 -17 159 3.2 4.8 0.00 0.00 0.00 79 1009.8
20260506181603 -17 110 4.8 9.7 0.00 0.00 0.00 79 1009.7
20260506181102 -17 148 1.6 8.0 0.00 0.00 0.00 79 1009.7
20260506180602 -17 168 3.2 6.4 0.00 0.00 0.00 79 1009.7
20260506180103 -17 192 3.2 8.0 0.00 0.00 0.00 79 1009.8
20260506175603 -17 184 9.7 9.7 0.00 0.00 0.00 78 1009.6
20260506175103 -17 172 8.0 9.7 0.00 0.00 0.00 78 1009.7
20260506174602 -17 164 8.0 16.1 0.00 0.00 0.00 78 1009.6
20260506174104 -17 170 6.4 16.1 0.00 0.00 0.00 77 1009.6
20260506173603 -17 127 6.4 12.9 0.00 0.00 0.00 76 1009.3
20260506173103 -17 118 11.3 14.5 0.00 0.00 0.00 76 1009.5
20260506172603 -17 133 8.0 19.3 0.00 0.00 0.00 76 1009.5
20260506172102 -17 172 9.7 12.9 0.00 0.00 0.00 77 1009.3
20260506171602 -17 105 4.8 9.7 0.00 0.00 0.00 77 1009.2
20260506171102 -17 155 8.0 8.0 0.00 0.00 0.00 77 1009.5
20260506170603 -17 149 4.8 8.0 0.00 0.00 0.00 77 1009.3
20260506170103 -17 191 3.2 11.3 0.00 0.00 0.00 76 1009.2
20260506165603 -17 179 8.0 14.5 0.00 0.00 0.00 76 1009.2
20260506165102 -17 153 6.4 11.3 0.00 0.00 0.00 77 1009.2
20260506164603 -17 122 3.2 16.1 0.00 0.00 0.00 77 1009.3
20260506164102 -17 142 9.7 12.9 0.00 0.00 0.00 77 1009.2
20260506163603 -17 123 4.8 17.7 0.00 0.00 0.00 78 1009.2
20260506163102 -17 159 17.7 19.3 0.00 0.00 0.00 76 1009.2
20260506162603 -17 160 12.9 17.7 0.00 0.00 0.00 76 1009.2
20260506162103 -17 176 8.0 20.9 0.00 0.00 0.00 77 1009.2
20260506161602 -17 220 8.0 17.7 0.00 0.00 0.00 78 1009.2
20260506161102 -17 180 14.5 19.3 0.00 0.00 0.00 79 1009.2
20260506160602 -17 147 9.7 19.3 0.00 0.00 0.00 79 1009.2
20260506155602 -17 175 6.4 11.3 0.00 0.00 0.00 77 1009.1
20260506155102 -17 125 8.0 16.1 0.00 0.00 0.00 78 1009.0
20260506154603 -17 170 4.8 14.5 0.00 0.00 0.00 78 1009.0
20260506154103 -17 158 4.8 12.9 0.00 0.00 0.00 79 1009.3
20260506153603 -17 142 3.2 6.4 0.00 0.00 0.00 80 1009.1
20260506153104 -17 203 8.0 16.1 0.00 0.00 0.00 79 1009.2
20260506152602 -17 129 6.4 14.5 0.00 0.00 0.00 78 1009.2
20260506152103 -17 197 6.4 9.7 0.00 0.00 0.00 77 1009.0
20260506151602 -17 165 3.2 9.7 0.00 0.00 0.00 76 1009.0
20260506151103 -17 135 6.4 12.9 0.00 0.00 0.00 74 1009.0
20260506150602 -17 165 11.3 19.3 0.00 0.00 0.00 74 1009.1
20260506145602 -17 131 11.3 22.5 0.00 0.00 0.00 74 1009.0
20260506145103 -17 135 14.5 22.5 0.00 0.00 0.00 76 1009.0
20260506144602 -17 129 14.5 14.5 0.00 0.00 0.00 74 1008.7
20260506144103 -17 109 9.7 17.7 0.00 0.00 0.00 73 1008.8
20260506143605 -17 116 3.2 17.7 0.00 0.00 0.00 74 1008.7
20260506143102 -17 199 3.2 6.4 0.00 0.00 0.00 74 1009.0
20260506142603 -17 125 3.2 16.1 0.00 0.00 0.00 76 1009.0
20260506142102 -17 124 6.4 17.7 0.00 0.00 0.00 76 1008.7
20260506141604 -17 160 8.0 14.5 0.00 0.00 0.00 76 1009.1
20260506141102 -17 161 3.2 22.5 0.00 0.00 0.00 76 1008.8
20260506140603 -17 179 6.4 22.5 0.00 0.00 0.00 76 1009.0
20260506140103 -17 143 4.8 14.5 0.00 0.00 0.00 76 1008.8
20260506135603 -17 128 12.9 20.9 0.00 0.00 0.00 76 1009.1
20260506135103 -17 178 9.7 19.3 0.00 0.00 0.00 77 1009.1
20260506134603 -17 139 8.0 19.3 0.00 0.00 0.00 79 1009.2
20260506134103 -17 155 20.9 22.5 0.00 0.00 0.00 79 1008.7
20260506133602 -17 153 14.5 27.4 0.00 0.00 0.00 80 1008.8
20260506133102 -17 148 4.8 12.9 0.00 0.00 0.00 79 1009.0
20260506132603 -17 164 12.9 20.9 0.00 0.00 0.00 79 1009.1
20260506132103 -17 183 11.3 24.1 0.00 0.00 0.00 80 1009.0
20260506131603 -17 127 12.9 20.9 0.00 0.00 0.00 81 1009.3
20260506131102 -17 134 9.7 24.1 0.00 0.00 0.00 81 1009.2
20260506130602 -17 130 17.7 20.9 0.00 0.00 0.00 81 1009.2
20260506130103 -17 141 11.3 22.5 0.00 0.00 0.00 81 1009.2
20260506125602 -17 155 17.7 24.1 0.00 0.00 0.00 80 1009.2
20260506125102 -17 229 6.4 16.1 0.00 0.00 0.00 80 1009.0
20260506124603 -17 128 11.3 30.6 0.00 0.00 0.00 80 1009.5
20260506124102 -17 133 20.9 24.1 0.00 0.00 0.00 79 1009.2
20260506123603 -17 102 12.9 14.5 0.00 0.00 0.00 79 1009.2
20260506123103 -17 137 11.3 19.3 0.00 0.00 0.00 79 1009.2
20260506122603 -17 207 9.7 17.7 0.00 0.00 0.00 79 1009.2
20260506122103 -17 158 6.4 14.5 0.00 0.00 0.00 77 1009.2
20260506121603 -17 134 9.7 12.9 0.00 0.00 0.00 77 1009.2
20260506121103 -17 191 9.7 16.1 0.00 0.00 0.00 75 1009.2
20260506120603 -17 120 8.0 16.1 0.00 0.00 0.00 75 1009.2
20260506115603 -17 127 12.9 30.6 0.00 0.00 0.00 77 1009.0
20260506115103 -17 121 11.3 20.9 0.00 0.00 0.00 77 1009.2
20260506114603 -17 164 4.8 20.9 0.00 0.00 0.00 78 1009.1
20260506114103 -17 117 14.5 20.9 0.00 0.00 0.00 78 1009.0
20260506113603 -17 127 8.0 22.5 0.00 0.00 0.00 78 1009.2
20260506113103 -17 148 14.5 17.7 0.00 0.00 0.00 77 1009.2
20260506112603 -17 117 6.4 17.7 0.00 0.00 0.00 77 1009.0
20260506112102 -17 135 6.4 20.9 0.00 0.00 0.00 78 1009.0
20260506111603 -17 114 14.5 17.7 0.00 0.00 0.00 79 1009.0
20260506111103 -17 148 11.3 19.3 0.00 0.00 0.00 80 1009.1
20260506110603 -17 136 14.5 17.7 0.00 0.00 0.00 81 1009.2
20260506105603 -17 116 3.2 8.0 0.00 0.00 0.00 81 1009.2
20260506105104 -17 135 3.2 11.3 0.00 0.00 0.00 81 1009.2
20260506104602 -17 121 11.3 20.9 0.00 0.00 0.00 81 1009.1
20260506104102 -17 134 4.8 12.9 0.00 0.00 0.00 82 1009.2
20260506103602 -17 189 0.0 8.0 0.00 0.00 0.00 81 1009.1
20260506103102 -17 197 3.2 12.9 0.00 0.00 0.00 82 1009.2
20260506102602 -17 113 8.0 19.3 0.00 0.00 0.00 81 1009.1
20260506102103 -17 159 1.6 9.7 0.00 0.00 0.00 81 1009.1
20260506101604 -17 151 8.0 14.5 0.00 0.00 0.00 82 1008.7
20260506101102 -17 129 6.4 11.3 0.00 0.00 0.00 82 1008.8
20260506100602 -17 138 3.2 8.0 0.00 0.00 0.00 83 1008.7
20260506095602 -17 158 3.2 6.4 0.00 0.00 0.00 85 1008.6
20260506095103 -17 278 4.8 11.3 0.00 0.00 0.00 85 1008.6
20260506094603 -17 135 8.0 16.1 0.00 0.00 0.00 86 1008.2
20260506094102 -17 187 14.5 32.2 0.00 0.00 0.00 85 1008.2
20260506093603 -17 136 12.9 35.4 0.00 0.00 0.00 85 1008.3
20260506093102 -17 127 14.5 37.0 0.00 0.00 0.00 85 1008.2
20260506092602 -17 142 12.9 24.1 0.00 0.00 0.00 86 1008.5
20260506092104 -17 201 3.2 33.8 0.00 0.00 0.00 87 1008.5
20260506091603 -17 108 16.1 19.3 0.00 0.00 0.00 89 1008.1
20260506091102 -17 108 16.1 19.3 0.00 0.00 0.00 89 1008.1
20260506090602 -17 108 16.1 19.3 0.00 0.00 0.00 89 1008.1
20260506085602 -17 138 12.9 24.1 0.00 0.00 0.00 89 1008.2
20260506085104 -17 148 4.8 25.7 0.00 0.00 0.00 90 1008.2
20260506084602 -17 126 11.3 27.4 0.00 0.00 0.00 90 1008.1
20260506084102 -17 190 8.0 16.1 0.00 0.00 0.00 89 1008.2
20260506083603 -17 161 16.1 24.1 0.00 0.00 0.00 88 1008.1
20260506083102 -17 157 8.0 25.7 0.00 0.00 0.00 88 1007.8
20260506082602 -17 163 19.3 37.0 0.00 0.00 0.00 88 1007.7
20260506082103 -17 149 16.1 35.4 0.00 0.00 0.00 89 1007.6
20260506081603 -17 145 9.7 22.5 0.00 0.00 0.00 89 1007.5
20260506081103 -17 165 6.4 11.3 0.00 0.00 0.00 89 1007.7
20260506080603 -17 163 6.4 17.7 0.00 0.00 0.00 89 1007.7
20260506073102 -17 146 4.8 24.1 0.00 0.00 0.00 91 1007.8
20260506072606 -17 159 9.7 30.6 0.00 0.00 0.00 91 1007.8
20260506072103 -17 142 11.3 40.2 0.00 0.00 0.00 91 1007.7
20260506071602 -17 163 9.7 30.6 0.00 0.00 0.00 92 1007.5
20260506071103 -17 132 14.5 24.1 0.00 0.00 0.00 92 1007.7
20260506070604 -17 139 17.7 27.4 0.00 0.00 0.00 93 1007.7
20260506062103 -17 194 0.0 4.8 0.00 0.00 0.00 95 1007.5
20260506061602 -17 14 3.2 8.0 0.00 0.00 0.00 94 1007.2
20260506061102 -17 336 1.6 3.2 0.00 0.00 0.00 94 1007.7
20260506060603 -17 0 1.6 6.4 0.00 0.00 0.00 94 1007.5
20260506051102 -17 322 6.4 9.7 0.00 0.00 0.00 94 1007.7
20260506050603 -17 320 1.6 4.8 0.00 0.00 0.00 94 1007.8
20260506050104 -17 352 12.9 12.9 0.00 0.00 0.00 94 1007.8
20260506045102 -17 14 3.2 4.8 0.00 0.00 0.00 94 1008.1
20260506044603 -17 266 6.4 9.7 0.00 0.00 0.00 94 1008.0
20260506044102 -17 220 9.7 9.7 0.00 0.00 0.00 94 1008.1
20260506043603 -17 354 14.5 27.4 0.00 0.00 0.00 94 1007.3
20260506043102 -17 315 6.4 14.5 0.00 0.00 0.00 94 1007.8
20260506042603 -17 281 3.2 6.4 0.00 0.00 0.00 94 1008.7
20260506042102 -17 281 1.6 6.4 0.00 0.00 0.00 94 1008.2
20260506041603 -17 311 1.6 8.0 0.00 0.00 0.00 94 1007.8
20260506041103 -17 14 3.2 6.4 0.00 0.00 0.00 94 1008.1
20260506040603 -17 327 4.8 8.0 0.00 0.00 0.00 94 1008.2
20260506035603 -17 326 3.2 4.8 0.00 0.00 0.00 94 1008.5
20260506035103 -17 70 4.8 6.4 0.00 0.00 0.00 94 1008.6
20260506034603 -17 320 4.8 4.8 0.00 0.00 0.00 94 1008.8
20260506034102 -17 255 0.0 3.2 0.00 0.00 0.00 94 1008.3
20260506033602 -17 313 3.2 4.8 0.00 0.00 0.00 94 1008.5
20260506033102 -17 331 4.8 8.0 0.00 0.00 0.00 94 1008.6
20260506032603 -17 350 3.2 9.7 0.00 0.00 0.00 94 1008.5
20260506032102 -17 0 0.0 3.2 0.00 0.00 0.00 94 1008.6
20260506031602 -17 313 6.4 11.3 0.00 0.00 0.00 94 1008.5
20260506031103 -17 285 6.4 9.7 0.00 0.00 0.00 94 1008.2
20260506030603 -17 323 9.7 12.9 0.00 0.00 0.00 94 1008.3
20260506030103 -17 312 4.8 16.1 0.00 0.00 0.00 94 1008.3
20260506025603 -17 340 9.7 19.3 0.00 0.00 0.00 94 1008.7
20260506025102 -17 251 3.2 20.9 0.00 0.00 0.00 94 1008.7
20260506024604 -17 254 1.6 11.3 0.00 0.00 0.00 94 1008.2
20260506024102 -17 337 9.7 14.5 0.00 0.00 0.00 94 1008.2
20260506023603 -17 353 4.8 11.3 0.00 0.00 0.00 93 1007.7
20260506023102 -17 17 4.8 6.4 0.00 0.00 0.00 93 1007.8
20260506022607 -17 345 0.0 9.7 0.00 0.00 0.00 93 1007.8
20260506022102 -17 335 8.0 9.7 0.00 0.00 0.00 93 1008.3
20260506021603 -17 332 3.2 8.0 0.00 0.00 0.00 93 1008.2
20260506021103 -17 23 1.6 8.0 0.00 0.00 0.00 93 1008.6
20260506020603 -17 357 3.2 8.0 0.00 0.00 0.00 93 1008.7
20260506020104 -17 0 3.2 4.8 0.00 0.00 0.00 93 1008.7
20260506015603 -17 358 9.7 9.7 0.00 0.00 0.00 93 1008.6
20260506015103 -17 297 0.0 1.6 0.00 0.00 0.00 93 1009.0
20260506014603 -17 5 1.6 8.0 0.00 0.00 0.00 93 1008.8
20260506014103 -17 345 0.0 9.7 0.00 0.00 0.00 93 1008.8
20260506013602 -17 23 1.6 6.4 0.00 0.00 0.00 93 1008.7
20260506013104 -17 356 1.6 4.8 0.00 0.00 0.00 93 1008.8
20260506012603 -17 180 0.0 0.0 0.00 0.00 0.00 93 1009.2
20260506012103 -17 300 1.6 4.8 0.00 0.00 0.00 93 1008.8
20260506011603 -17 0 0.0 1.6 0.00 0.00 0.00 92 1009.2
20260506011103 -17 0 4.8 9.7 0.00 0.00 0.00 92 1009.2
20260506010603 -17 5 1.6 4.8 0.00 0.00 0.00 92 1009.5
20260506010103 -17 350 6.4 12.9 0.00 0.00 0.00 92 1009.3
20260506005603 -17 20 4.8 11.3 0.00 0.00 0.00 92 1009.3
20260506005104 -17 23 0.0 4.8 0.00 0.00 0.00 92 1009.3
20260506004604 -17 285 1.6 3.2 0.00 0.00 0.00 92 1009.3
20260506004102 -17 323 6.4 8.0 0.00 0.00 0.00 91 1009.7
20260506003604 -17 350 6.4 6.4 0.00 0.00 0.00 91 1009.7
20260506003103 -17 354 0.0 4.8 0.00 0.00 0.00 91 1009.8
20260506002602 -17 351 4.8 6.4 0.00 0.00 0.00 91 1009.8
20260506002102 -17 15 0.0 4.8 0.00 0.00 0.00 90 1009.7
20260506001602 -17 0 0.0 4.8 0.00 0.00 0.00 90 1009.7
20260506001103 -17 261 0.0 1.6 0.00 0.00 0.00 89 1010.0
20260506000602 -17 261 0.0 3.2 0.00 0.00 0.00 89 1009.6
20260505235602 -17 33 8.0 8.0 0.00 0.00 0.00 89 1009.7
20260505235103 -17 0 4.8 12.9 0.00 0.00 0.00 89 1009.8